Back to catalog

ATLAS 5 CENTAUR DEB

LostHEO
NORAD 44981·DEBRIS·🇺🇸 United States

Launched Oct 17, 2018 from Cape Canaveral Space Force Station

Loading…

Next Passes (next 24 hours)

TLE

StaleSource: Space-Track

Epoch: Oct 21, 2024, 13:01 UTC

1 44981U 18079BQ  24295.54268380 -.00000074  00000-0  00000-0 0  9991
2 44981  11.7864 281.8716 5179575 210.6550 104.7817  2.34133017  2482

Track ATLAS 5 CENTAUR DEB in real time with AllMySat

Download on the App Store